This is the latest recevied weather packets stored in our database for station/object KC4JIR. If no packets are shown the sender has not sent any weather packets the latest 10 day(s).
| Time | Temp. | Humidity | Pressure | Rain* | Wind** | Luminosity | Snow |
|---|---|---|---|---|---|---|---|
| 1777760701 | 21.11° C | 59% | 1009.2 hPa | 0 mm | - | 40 W/m² | - |
| 1777760397 | 21.11° C | 58% | 1009.1 hPa | 0 mm | - | 48 W/m² | - |
| 1777760093 | 21.67° C | 65% | 1009.1 hPa | 0 mm | - | 101 W/m² | - |
| 1777759790 | 21.11° C | 66% | 1009 hPa | 0 mm | - | 265 W/m² | - |
| 1777759485 | 21.11° C | 61% | 1009 hPa | 0 mm | - | 63 W/m² | - |
| 1777759183 | 21.67° C | 59% | 1009 hPa | 0 mm | - | 49 W/m² | - |
| 1777758880 | 22.22° C | 62% | 1009 hPa | 0 mm | - | 65 W/m² | - |
| 1777758577 | 22.78° C | 57% | 1008.8 hPa | 0 mm | - | 331 W/m² | - |
| 1777758274 | 22.78° C | 56% | 1008.9 hPa | 0 mm | - | 313 W/m² | - |
| 1777757971 | 22.22° C | 59% | 1008.8 hPa | 0 mm | - | 335 W/m² | - |
| 1777757667 | 22.22° C | 60% | 1008.8 hPa | 0 mm | - | 371 W/m² | - |
| 1777757366 | 21.67° C | 64% | 1008.6 hPa | 0 mm | - | 373 W/m² | - |
| 1777757065 | 20° C | 79% | 1008.8 hPa | 0 mm | - | 448 W/m² | - |
| 1777756762 | 20° C | 83% | 1008.5 hPa | 0 mm | - | 517 W/m² | - |
| 1777756457 | 18.89° C | 67% | 1009 hPa | 0 mm | - | 100 W/m² | - |
| 1777756155 | 18.89° C | 67% | 1008.8 hPa | 0 mm | - | 100 W/m² | - |
| 1777755852 | 18.89° C | 82% | 1009 hPa | 0 mm | - | 183 W/m² | - |
| 1777755549 | 18.89° C | 82% | 1009 hPa | 0 mm | - | 183 W/m² | - |
| 1777755245 | 18.89° C | 81% | 1009 hPa | 0 mm | - | 75 W/m² | - |
| 1777754942 | 19.44° C | 80% | 1009.1 hPa | 0 mm | - | 53 W/m² | - |
| 1777754639 | 20° C | 79% | 1009.2 hPa | 0 mm | - | 52 W/m² | - |
| 1777754337 | 20.56° C | 75% | 1009 hPa | 0 mm | - | 75 W/m² | - |
| 1777754034 | 21.11° C | 79% | 1008.8 hPa | 0 mm | - | 101 W/m² | - |
| 1777753729 | 22.22° C | 71% | 1008.9 hPa | 0 mm | - | 327 W/m² | - |
| 1777753427 | 21.67° C | 65% | 1008.9 hPa | 0 mm | - | 684 W/m² | - |
* Rain latest hour (hover to see other rain measurements)
** Current wind speed in m/s (hover to see current wind gust speed)